Pasco, WA
on Wednesday, January 23, 2013

Wednesday
Previous Day Next Day
Daily Summary
 ActualAverageRecord
Temperature
Mean Temperature °F 36°F  
Max Temperature 30°F 43°F 60°F (2011)
Min Temperature 26°F 29°F 7°F (2008)
Degree Days
Heating Degree Days 37 29  
Month to date heating degree days 790 706  
Since 1 July heating degree days 2697 2922  
Cooling Degree Days 0 0  
Month to date cooling degree days 0 0  
Year to date cooling degree days 0 0  
Moisture
Dew Point 23°F   
Average Humidity 80    
Maximum Humidity 85    
Minimum Humidity 75    
Precipitation
Precipitation 0.02 in in 0.65 in (1970)
Month to date precipitation 0.29  
Year to date precipitation 0.29  
Snow
Snow 0.00 in in in ()
Snow Depth 0.00 in   
Wind
Wind Speed 4 mph   
Max Wind Speed 13 mph   
Max Gust Speed 15 mph   
Visibility 9 miles   
Events Snow   

Key: T is trace of precipitation, MM is missing value
Source: NWS Daily Summary
Time(PST)TemperatureDew PointHumidity Pressure Visibility Wind DirectionWind SpeedGust SpeedPrecipitationEvents Conditions
12:08 AM 26.6°F 21.2°F 80% 30.26 in 10.0 miles WNW 3.5 mph - N/A   Overcast
12:53 AM 26.1°F 21.0°F 81% 30.25 in 10.0 miles NW 4.6 mph - N/A   Overcast
1:53 AM 26.1°F 21.9°F 84% 30.25 in 10.0 miles NW 5.8 mph - N/A   Overcast
2:53 AM 26.1°F 21.9°F 84% 30.24 in 10.0 miles NNW 5.8 mph - N/A   Overcast
3:53 AM 26.1°F 21.9°F 84% 30.22 in 10.0 miles North 4.6 mph - N/A   Overcast
4:53 AM 26.1°F 21.9°F 84% 30.22 in 10.0 miles Calm Calm - N/A   Overcast
5:53 AM 26.1°F 21.9°F 84% 30.19 in 10.0 miles NNW 4.6 mph - N/A   Overcast
7:53 AM 26.1°F 21.9°F 84% 30.18 in 6.0 miles NW 3.5 mph - N/A   Overcast
8:53 AM 26.1°F 21.9°F 84% 30.17 in 8.0 miles NNW 4.6 mph - N/A   Overcast
9:53 AM 27.0°F 21.9°F 81% 30.16 in 7.0 miles Calm Calm - N/A   Overcast
10:53 AM 27.0°F 21.9°F 81% 30.15 in 7.0 miles NW 6.9 mph - N/A   Overcast
11:53 AM 28.0°F 21.9°F 78% 30.13 in 10.0 miles Calm Calm - N/A   Overcast
12:53 PM 28.0°F 21.9°F 78% 30.12 in 7.0 miles Calm Calm - 0.00 in   Overcast
1:45 PM 28.4°F 23.0°F 80% 30.03 in 7.0 miles NNE 8.1 mph - 0.00 in   Overcast
1:53 PM 28.0°F 23.0°F 81% 30.03 in 10.0 miles NNE 8.1 mph - 0.00 in   Overcast
2:03 PM 28.4°F 23.0°F 80% 30.03 in 7.0 miles NNE 5.8 mph - 0.00 in   Overcast
2:53 PM 28.9°F 23.0°F 78% 30.06 in 7.0 miles North 3.5 mph - 0.00 in   Overcast
3:53 PM 28.9°F 21.9°F 75% 30.05 in 7.0 miles Calm Calm - N/A   Overcast
4:00 PM 28.4°F 21.2°F 74% 30.04 in 10.0 miles Calm Calm - N/A   Overcast
4:53 PM 28.0°F 23.0°F 81% 30.07 in 10.0 miles WSW 4.6 mph - N/A   Overcast
5:53 PM 28.9°F 23.0°F 78% 30.08 in 10.0 miles WSW 5.8 mph - N/A   Overcast
6:53 PM 28.9°F 23.0°F 78% 30.09 in 10.0 miles South 8.1 mph - N/A   Overcast
7:53 PM 28.9°F 24.1°F 82% 30.11 in 9.0 miles South 8.1 mph - 0.01 in   Overcast
8:13 PM 28.4°F 24.8°F 86% 30.10 in 7.0 miles SSW 8.1 mph - 0.00 in Snow Snow
8:53 PM 30.0°F 24.1°F 79% 30.13 in 10.0 miles SW 9.2 mph - 0.01 in   Ice Pellets
9:53 PM 30.0°F 24.1°F 79% 30.15 in 10.0 miles South 8.1 mph - 0.00 in   Ice Pellets
10:53 PM 30.0°F 24.1°F 79% 30.16 in 10.0 miles South 9.2 mph - 0.00 in   Ice Pellets
11:53 PM 28.9°F 24.1°F 82% 30.18 in 10.0 miles SSE 4.6 mph - 0.00 in   Ice Pellets
Moon Phase
Jan. 23 Jan. 26 Feb. 03 Feb. 10 Feb. 17
Sunrise:07:28 AM (PST) Moon Rise:02:00 PM (PST)
Sunset:04:48 PM (PST) Moon Set:04:47 AM (PST)

Copyright © 2014 The Weather Underground, Inc.